[[{"header":{"parameterUnit":"m.s-1","parameterCategory":1,"la1":30.2991,"la2":30.254,"lo1":-89.0895,"lo2":-89.0444,"dy":0.0017,"dx":0.0017,"nx":28,"ny":28,"refTime":"2024-04-28T03:00:00:Z","depth":0,"parameterNumber":2,"parameterNumberName":"U-component_of_WINDS"},"data":[0,0,0,0,0,0,0,0,0,0,0,0,0,0,0,0,0,0,0,0,0,0,0,0,0,0,0,0,0,0,0,0,0,0,0,0,0,0,0,0,0,0,0,0,0,0,0,0,0,0,0,0,0,0,0,0,0,0,-7.801,-7.8011,0,-7.8158,-7.8159,-7.8161,-7.812,-7.8117,-7.8114,-7.8112,-7.8258,-7.8264,-7.8271,0,0,0,0,0,0,0,0,0,0,0,0,0,-7.7689,-7.7695,-7.801,-7.8012,-7.8013,-7.8157,-7.8159,-7.8161,-7.8121,-7.8117,-7.8114,-7.811,-7.8256,-7.8264,-7.8272,0,0,0,0,0,0,0,0,0,0,0,0,0,-7.7831,-7.7697,-7.8009,-7.8011,-7.8012,-7.8157,-7.816,-7.8162,-7.8122,-7.8117,-7.8113,-7.8109,-7.8253,-7.8263,-7.8273,-7.8423,0,0,-7.8303,-7.8308,0,0,0,0,0,0,0,0,-7.7823,-7.7843,-7.8009,-7.8011,-7.8013,-7.8116,-7.81,-7.8249,-7.8123,-7.808,-7.8112,-7.8106,-7.8214,-7.8227,-7.8264,-7.843,-7.8437,-7.8304,-7.831,-7.8314,-7.8317,0,0,0,0,0,0,0,-7.7814,-7.7837,-7.8068,-7.8011,-7.8014,-7.8003,-7.8018,-7.8128,-7.817,-7.8083,-7.8081,-7.8099,-7.8214,-7.8255,-7.8267,-7.8439,-7.8304,-7.8313,-7.8319,-7.8323,-7.8735,-7.874,0,0,0,0,0,0,-7.7803,-7.7829,-7.8063,-7.8072,-7.7905,-7.8012,-7.8029,-7.8087,-7.8169,-7.8177,-7.8103,-7.8097,-7.824,-7.8256,-7.8272,-7.8453,-7.8314,-7.8324,-7.8329,-7.873,-7.8737,-7.8742,0,0,0,0,0,0,-7.7796,-7.7824,-7.8057,-7.795,-7.7979,-7.8023,-7.8088,-7.8093,-7.8133,-7.8184,-7.819,-7.8137,-7.8237,-7.8258,-7.8386,-7.8457,-7.8328,-7.8337,-7.8725,-7.8732,-7.8739,-7.8815,0,0,0,0,0,0,-7.7787,-7.7822,-7.788,-7.7952,-7.7985,-7.817,-7.8093,-7.8099,-7.8151,-7.8144,-7.8217,-7.8225,-7.8235,-7.8372,-7.8396,-7.8468,-7.8345,-7.8718,-7.8728,-7.8737,-7.8806,-7.8824,-7.884,0,0,0,0,0,-7.7776,-7.7895,-7.7883,-7.7912,-7.8059,-7.8174,-7.8193,-7.8204,-7.8157,-7.8215,-7.8248,-7.8222,-7.8447,-7.8385,-7.8413,-7.8489,-7.8714,-7.8725,-7.8736,-7.8799,-7.8821,-7.8839,0,0,0,0,0,0,-7.7827,-7.7904,-7.7892,-7.8038,-7.81,-7.8167,-7.824,-7.8227,-7.8302,-7.8292,-7.8302,-7.8319,-7.8449,-7.8483,-7.8413,-7.8639,-7.8573,-7.859,-7.8611,-7.8633,-7.8649,-7.8636,-7.8353,0,0,0,0,0,-7.7857,-7.7945,-7.8007,-7.813,-7.8162,-7.8197,-7.8247,-7.8251,-7.8315,-7.834,-7.8382,-7.8444,-7.8528,-7.8583,-7.8664,-7.8813,-7.8827,-7.8879,-7.8896,-7.8909,-7.8922,-7.9002,-7.9026,-7.8779,-7.8779,-7.8778,0,0,-7.7916,-7.7969,-7.8023,-7.8141,-7.819,-7.828,-7.8218,-7.8316,-7.8382,-7.8354,-7.8477,-7.8511,-7.8581,-7.872,-7.8783,-7.8751,-7.8995,-7.8923,-7.8934,-7.894,-7.9016,-7.904,-7.906,-7.8786,-7.8785,-7.8784,0,0,-7.8069,-7.812,-7.8227,-7.8278,-7.8353,-7.8376,-7.8402,-7.8472,-7.8494,-7.8619,-7.8599,-7.8678,-7.8824,-7.8874,-7.8918,-7.9095,-7.9073,-7.9122,-7.9206,-7.9284,-7.9303,-7.9321,-7.9381,-7.9403,-7.9136,-7.9136,-7.9136,0,-7.8132,-7.8269,-7.8283,-7.8383,-7.8435,-7.8417,-7.8525,-7.8573,-7.867,-7.8706,-7.867,-7.8853,-7.8899,-7.9049,-7.9092,-7.913,-7.9158,-7.911,-7.93,-7.9317,-7.9334,-7.9391,-7.9414,-7.9141,-7.914,-7.914,-7.9139,0,-7.8342,-7.8437,-7.8515,-7.8611,-7.8672,-7.8775,-7.8804,-7.8865,-7.8865,-7.8891,-7.9018,-7.9073,-7.9164,-7.9201,-7.9201,-7.9352,-7.9329,-7.9298,-7.923,-7.9362,-7.9416,-7.9438,-7.9148,-7.9146,-7.9145,-7.9144,0,0,-7.8527,-7.8633,-7.866,-7.8704,-7.8787,-7.886,-7.8964,-7.9055,-7.9105,-7.9174,-7.9259,-7.9385,-7.9356,-7.9407,-7.9413,-7.9482,-7.9616,-7.9441,-7.9443,-7.9468,-7.9782,-7.9802,-7.9828,-7.9605,-7.9609,-7.9612,-7.9775,0,-7.8684,-7.8867,-7.8884,-7.9047,-7.9134,-7.912,-7.921,-7.927,-7.9299,-7.9376,-7.9407,-7.9495,-7.9452,-7.9482,-7.9551,-7.9585,-7.9678,-7.9574,-7.968,-7.9684,-7.9658,-7.9857,-7.9878,-8.0029,-7.9797,-7.98,-7.9803,0,-7.8892,-7.8968,-7.914,-7.9213,-7.925,-7.933,-7.9415,-7.949,-7.9559,-7.9575,-7.9634,-7.9631,-7.9736,-7.967,-7.9814,-7.9742,-7.9788,-7.9812,-7.9818,-7.9824,-7.9748,-7.9864,-8.0078,-8.0098,-7.9837,-7.9834,-7.9832,0,-7.9005,-7.9152,-7.9273,-7.9312,-7.94,-7.9456,-7.9495,-7.956,-7.9614,-7.9689,-7.9724,-7.981,-7.9856,-7.9922,-7.9942,-7.9893,-8.0085,-8.002,-8.0098,-8.0098,-8.0135,-8.0131,-8.0354,-8.0172,-8.0172,-8.0171,-8.0171,0,-7.9176,-7.9281,-7.9325,-7.9399,-7.9517,-7.9537,-7.9651,-7.9687,-7.9746,-7.9826,-7.9821,-7.9895,-7.992,-8.0,-8.0017,-8.0132,-8.0154,-8.0168,-8.017,-8.0166,-8.0163,-8.0191,-8.018,-8.0177,-8.0176,-8.0175,-8.0174,0,-7.932,-7.9355,-7.9486,-7.956,-7.9581,-7.9664,-7.9726,-7.9798,-7.9827,-7.9929,-7.9953,-7.9999,-8.0092,-8.0121,-8.0233,-8.0244,-8.0378,-8.0373,-8.0354,-8.0353,-8.0428,-8.0419,-8.0673,-8.0706,-8.0507,-8.0509,-8.051,0,-7.9425,-7.9505,-7.9589,-7.9643,-7.9685,-7.9773,-7.9829,-7.9853,-7.9911,-7.9996,-8.0057,-8.015,-8.0224,-8.0374,-8.0416,-8.0501,-8.0496,-8.058,-8.0508,-8.0501,-8.0493,-8.0486,-8.0493,-8.0591,-8.0593,-8.0595,-8.0596,0,-7.9606,-7.962,-7.9701,-7.979,-7.9857,-7.9927,-7.9995,-8.0039,-8.0073,-8.0138,-8.0235,-8.0293,-8.0409,-8.05,-8.0588,-8.0627,-8.0616,-8.0619,-8.0641,-8.0634,-8.0619,-8.0625,-8.0386,-8.0612,-8.061,-8.0609,-8.0608,-8.0607,-7.9731,-7.9802,-7.9872,-7.9963,-8.0017,-8.0081,-8.0151,-8.0191,-8.0272,-8.0369,-8.0379,-8.0482,-8.055,-8.0667,-8.0711,-8.0791,-8.0767,-8.0799,-8.0807,-8.0813,-8.0817,-8.0611,-8.0808,-8.0807,-8.0807,-8.0807,-8.0806,0,-7.9909,-7.9954,-8.0038,-8.0134,-8.0206,-8.0194,-8.0269,-8.0329,-8.042,-8.0486,-8.056,-8.0671,-8.076,-8.0811,-8.09,-8.0955,-8.0952,-8.0977,-8.097,-8.0979,-8.0836,-8.0806,-8.0977,-8.0977,-8.0977,-8.0977,-8.0977,-8.0977,-8.0009,-8.0128,-8.015,-8.0296,-8.034,-8.0443,-8.0486,-8.0545,-8.0597,-8.0721,-8.0796,-8.0829,-8.0889,-8.0982,-8.1064,-8.1076,-8.1107,-8.1134,-8.1144,-8.1007,-8.0989,-8.0973,-8.0945,-8.1142,-8.1142,-8.128,-8.1281,-8.1282]},{"header":{"parameterUnit":"m.s-1","parameterCategory":1,"la1":30.2991,"la2":30.254,"lo1":-89.0895,"lo2":-89.0444,"dy":0.0017,"dx":0.0017,"nx":28,"ny":28,"refTime":"2024-04-28T03:00:00:Z","depth":0,"parameterNumber":3,"parameterNumberName":"V-component_of_WINDS"},"data":[0,0,0,0,0,0,0,0,0,0,0,0,0,0,0,0,0,0,0,0,0,0,0,0,0,0,0,0,0,0,0,0,0,0,0,0,0,0,0,0,0,0,0,0,0,0,0,0,0,0,0,0,0,0,0,0,0,0,4.2625,4.2625,0,4.2681,4.2681,4.2682,4.2674,4.2674,4.2673,4.2672,4.2724,4.2726,4.2729,0,0,0,0,0,0,0,0,0,0,0,0,0,4.2509,4.2511,4.2625,4.2625,4.2626,4.2681,4.2681,4.2682,4.2675,4.2673,4.2672,4.2671,4.2724,4.2726,4.2729,0,0,0,0,0,0,0,0,0,0,0,0,0,4.2561,4.2512,4.2624,4.2629,4.263,4.268,4.2681,4.2682,4.2675,4.2673,4.2672,4.2671,4.2723,4.2726,4.2729,4.2777,0,0,4.274,4.2741,0,0,0,0,0,0,0,0,4.2558,4.2565,4.2628,4.2629,4.263,4.2669,4.266,4.2714,4.2675,4.2658,4.2672,4.267,4.2707,4.2711,4.2725,4.278,4.2782,4.274,4.2742,4.2743,4.2744,0,0,0,0,0,0,0,4.2555,4.2563,4.2647,4.2629,4.263,4.2627,4.2633,4.267,4.2689,4.2659,4.2659,4.2666,4.2707,4.2721,4.2726,4.2783,4.274,4.2743,4.2745,4.2746,4.2882,4.2884,0,0,0,0,0,0,4.255,4.256,4.2645,4.2648,4.259,4.2631,4.2637,4.2658,4.2689,4.2692,4.2667,4.2665,4.2716,4.2722,4.2728,4.2787,4.2743,4.2746,4.2748,4.2881,4.2883,4.2885,0,0,0,0,0,0,4.2548,4.2558,4.2643,4.2604,4.2615,4.2634,4.2657,4.266,4.2674,4.2695,4.2697,4.2678,4.2716,4.2723,4.2766,4.2789,4.2748,4.2751,4.2879,4.2881,4.2884,4.2906,0,0,0,0,0,0,4.2545,4.2557,4.2576,4.2605,4.2617,4.2681,4.2659,4.2662,4.2681,4.2679,4.2706,4.2709,4.2715,4.2761,4.2769,4.2793,4.2754,4.2877,4.288,4.2883,4.2904,4.2909,4.2914,0,0,0,0,0,4.254,4.2578,4.2577,4.2587,4.2641,4.2682,4.2689,4.2696,4.2682,4.2701,4.2715,4.2708,4.2785,4.2765,4.2775,4.28,4.2875,4.2879,4.2883,4.2901,4.2908,4.2914,0,0,0,0,0,0,4.2549,4.2582,4.2581,4.2629,4.2653,4.2681,4.2704,4.2703,4.273,4.2727,4.2734,4.274,4.2784,4.2796,4.2773,4.2849,4.2828,4.2834,4.2839,4.2846,4.2851,4.2847,4.2756,0,0,0,0,0,4.2557,4.2589,4.2616,4.2656,4.2668,4.2685,4.2703,4.2707,4.2731,4.274,4.2757,4.278,4.2809,4.2828,4.2856,4.2906,4.2912,4.2928,4.2933,4.2937,4.2942,4.2971,4.2978,4.2896,4.2896,4.2896,0,0,4.2573,4.2595,4.2614,4.2658,4.2677,4.271,4.2693,4.2727,4.2751,4.2745,4.2788,4.2801,4.2826,4.2874,4.2895,4.2885,4.2966,4.2942,4.2945,4.2947,4.2975,4.2983,4.299,4.2899,4.2898,4.2898,0,0,4.2619,4.2639,4.2676,4.2696,4.2726,4.2737,4.2746,4.2775,4.2784,4.2827,4.2825,4.2853,4.2903,4.2922,4.2939,4.2996,4.2991,4.3004,4.3032,4.3059,4.3066,4.3072,4.3093,4.31,4.3009,4.3009,4.3009,0,4.2635,4.2685,4.2694,4.273,4.275,4.2749,4.2787,4.2805,4.2842,4.2856,4.2845,4.291,4.2927,4.298,4.2994,4.3007,4.3017,4.3001,4.3065,4.307,4.3076,4.3096,4.3104,4.3011,4.3011,4.301,4.301,0,4.2703,4.2738,4.2764,4.2803,4.2826,4.2862,4.2877,4.2899,4.2902,4.2914,4.2959,4.298,4.3013,4.3026,4.3028,4.3079,4.3073,4.3063,4.3042,4.3085,4.3104,4.3112,4.3013,4.3012,4.3012,4.3012,0,0,4.2754,4.2801,4.281,4.2829,4.2863,4.289,4.2926,4.2962,4.2981,4.3007,4.3038,4.3082,4.3075,4.3093,4.3098,4.3122,4.3168,4.311,4.311,4.312,4.3227,4.3234,4.3243,4.3165,4.3167,4.3168,4.3225,0,4.2804,4.2871,4.2883,4.2941,4.2974,4.2975,4.3007,4.3031,4.3045,4.3074,4.3087,4.3119,4.3106,4.3118,4.3142,4.3157,4.3189,4.3153,4.3194,4.3195,4.3188,4.3253,4.326,4.3313,4.3233,4.3234,4.3235,0,4.2871,4.2902,4.2964,4.2997,4.3011,4.304,4.3075,4.3103,4.3131,4.3139,4.3161,4.3164,4.3202,4.318,4.3233,4.3208,4.3226,4.3236,4.3238,4.3242,4.3217,4.3259,4.333,4.3339,4.3247,4.3246,4.3245,0,4.2903,4.296,4.3006,4.3022,4.3061,4.3081,4.3098,4.3125,4.3146,4.3176,4.319,4.3223,4.3241,4.3266,4.3277,4.326,4.333,4.3309,4.3337,4.3337,4.3351,4.335,4.3426,4.3362,4.3362,4.3362,4.3362,0,4.2958,4.2996,4.3022,4.3049,4.3093,4.3106,4.3148,4.3164,4.3189,4.3219,4.3221,4.325,4.3263,4.3293,4.3302,4.3345,4.3353,4.336,4.3362,4.336,4.336,4.3372,4.3368,4.3364,4.3364,4.3363,4.3363,0,4.3001,4.302,4.3069,4.3104,4.3113,4.3144,4.3172,4.3199,4.3214,4.3253,4.3262,4.3284,4.332,4.3334,4.3377,4.3383,4.3434,4.3432,4.3425,4.3425,4.3453,4.3451,4.354,4.3553,4.348,4.3481,4.3481,0,4.3035,4.3065,4.3104,4.3126,4.3144,4.3179,4.3202,4.3216,4.3239,4.3275,4.3298,4.3335,4.3365,4.3423,4.3442,4.3476,4.3475,4.3504,4.348,4.3478,4.3477,4.3475,4.3478,4.3509,4.3509,4.351,4.351,0,4.3094,4.3102,4.3136,4.3174,4.3201,4.3231,4.326,4.3277,4.3296,4.3322,4.336,4.3384,4.343,4.3467,4.3502,4.3519,4.3518,4.3518,4.3527,4.3525,4.352,4.3524,4.3438,4.3516,4.3515,4.3515,4.3515,4.3514,4.3134,4.3162,4.3194,4.3232,4.3256,4.3284,4.3312,4.3331,4.3364,4.3404,4.341,4.3452,4.348,4.3528,4.3546,4.3579,4.3571,4.3583,4.3586,4.3589,4.3591,4.3515,4.3585,4.3585,4.3585,4.3584,4.3584,0,4.3194,4.3216,4.3251,4.3293,4.3323,4.3322,4.3354,4.3379,4.3416,4.3444,4.3475,4.352,4.3557,4.3579,4.3616,4.3637,4.3638,4.3646,4.3645,4.3649,4.3596,4.3585,4.3645,4.3645,4.3645,4.3645,4.3645,4.3645,4.3228,4.3276,4.3289,4.3349,4.337,4.3412,4.3431,4.3457,4.348,4.3531,4.3562,4.3577,4.3603,4.3642,4.3675,4.3681,4.3695,4.3704,4.3709,4.3659,4.3652,4.3646,4.3636,4.3707,4.3707,4.376,4.376,4.3761]}]]